Weather History for Zapata, TX

Change the Weather History Date:

Sunday, January 27, 2013

  Actual Average (KLRD) Record (KLRD)
Temperature  
Mean Temperature 75 °F 58 °F  
Max Temperature 84 °F 68 °F 96 °F (1918)
Min Temperature 66 °F 47 °F 23 °F (1976)
Degree Days  
Heating Degree Days 0 8  
Month to date heating degree days 258  
Since 1 July heating degree days 648  
Cooling Degree Days 10 1  
Month to date cooling degree days 27  
Year to date cooling degree days 27  
Growing Degree Days 25 (Base 50)    
Moisture  
Dew Point 60 °F    
Average Humidity 65    
Maximum Humidity 88    
Minimum Humidity 35    
Precipitation  
Precipitation 0.00 in 0.03 in 1.03 in (2005)
Month to date precipitation 0.79  
Year to date precipitation 0.79  
Sea Level Pressure  
Sea Level Pressure 29.97 in    
Wind  
Wind Speed 10 mph (SSE)    
Max Wind Speed 17 mph    
Max Gust Speed 25 mph    
Visibility 10 miles    
Events      
T = Trace of Precipitation, MM = Missing Value Source: NWS Daily Summary

Daily Weather History Graph

Daily Weather History Graph

Search for Another Location

Airport:

Trip Planner

Search our weather history database for the weather conditions in past years. The results will help you decide how hot, cold, wet, or windy it might be!

Date:

Astronomy

Jan. 27, 2013 Rise Set
Actual Time 7:24 AM CST 6:15 PM CST
Civil Twilight 7:00 AM CST 6:39 PM CST
Nautical Twilight 6:32 AM CST 7:07 PM CST
Astronomical Twilight 6:04 AM CST 7:35 PM CST
Moon 7:01 PM CST (1/27) 7:26 AM CST (1/27)
Length of Visible Light 11h 39m
Length of Day
10h 50m
Full, 100% of the Moon is Illuminated
Jan 27
Full
Feb 3
Last Quarter
Feb 10
New
Feb 17
First Quarter
Feb 25
Full

Hourly Weather History & Observations

Time (CST) Temp. Heat Index Dew Point Humidity Pressure Visibility Wind Dir Wind Speed Gust Speed Precip Events Conditions
12:15 AM 67.5 °F - 60.1 °F 77% 30.02 in 10.0 mi SE 10.4 mph 18.4 mph N/A   Mostly Cloudy
12:35 AM 68.0 °F - 60.8 °F 78% 30.02 in 10.0 mi SE 11.5 mph 18.4 mph N/A   Overcast
12:55 AM 68.2 °F - 61.0 °F 78% 30.01 in 10.0 mi SE 11.5 mph - N/A   Overcast
1:15 AM 68.5 °F - 61.5 °F 78% 30.01 in 10.0 mi SE 16.1 mph 20.7 mph N/A   Overcast
1:35 AM 68.9 °F - 61.7 °F 78% 30.01 in 10.0 mi SE 15.0 mph 23.0 mph N/A   Overcast
1:55 AM 68.9 °F - 61.7 °F 78% 30.01 in 10.0 mi SE 12.7 mph 21.9 mph N/A   Overcast
2:15 AM 68.4 °F - 61.7 °F 79% 30.01 in 10.0 mi SE 12.7 mph 19.6 mph N/A   Overcast
2:35 AM 68.0 °F - 61.2 °F 79% 30.01 in 10.0 mi SE 12.7 mph 18.4 mph N/A   Overcast
2:55 AM 68.0 °F - 61.0 °F 78% 30.01 in 10.0 mi SE 9.2 mph 19.6 mph N/A   Overcast
3:15 AM 68.0 °F - 61.0 °F 78% 30.00 in 10.0 mi SE 10.4 mph 18.4 mph N/A   Overcast
3:35 AM 67.5 °F - 61.0 °F 80% 30.00 in 10.0 mi SE 8.1 mph 17.3 mph N/A   Overcast
3:55 AM 67.6 °F - 61.2 °F 80% 30.00 in 10.0 mi SE 8.1 mph - N/A   Overcast
4:15 AM 67.8 °F - 61.3 °F 80% 29.99 in 10.0 mi SE 10.4 mph 16.1 mph N/A   Overcast
4:35 AM 67.6 °F - 61.3 °F 80% 29.99 in 10.0 mi SE 11.5 mph - N/A   Overcast
4:55 AM 67.1 °F - 61.2 °F 81% 29.99 in 10.0 mi SE 9.2 mph - N/A   Overcast
5:15 AM 66.2 °F - 61.2 °F 84% 29.99 in 10.0 mi SE 8.1 mph - N/A   Mostly Cloudy
5:35 AM 66.2 °F - 61.7 °F 85% 29.99 in 10.0 mi SE 5.8 mph - N/A   Overcast
5:55 AM 66.2 °F - 61.9 °F 86% 29.99 in 10.0 mi SE 8.1 mph - N/A   Overcast
6:15 AM 66.7 °F - 61.9 °F 84% 29.99 in 10.0 mi SE 9.2 mph - N/A   Overcast
6:35 AM 67.3 °F - 61.9 °F 83% 30.00 in 10.0 mi SE 10.4 mph - N/A   Overcast
6:55 AM 67.3 °F - 61.7 °F 82% 30.00 in 10.0 mi SE 11.5 mph 17.3 mph N/A   Overcast
7:15 AM 66.7 °F - 61.9 °F 84% 30.00 in 10.0 mi SE 9.2 mph - N/A   Overcast
7:35 AM 66.6 °F - 62.4 °F 86% 30.01 in 10.0 mi SE 6.9 mph - N/A   Overcast
7:55 AM 66.6 °F - 62.8 °F 88% 30.01 in 10.0 mi SSE 8.1 mph - N/A   Overcast
8:15 AM 66.9 °F - 62.6 °F 86% 30.01 in 10.0 mi SE 10.4 mph - N/A   Overcast
8:35 AM 67.1 °F - 62.6 °F 85% 30.01 in 10.0 mi SSE 11.5 mph - N/A   Overcast
8:55 AM 67.3 °F - 62.1 °F 83% 30.02 in 10.0 mi SSE 13.8 mph 18.4 mph N/A   Overcast
9:15 AM 68.9 °F - 62.2 °F 79% 30.02 in 10.0 mi SSE 8.1 mph - N/A   Overcast
9:35 AM 69.8 °F - 61.7 °F 75% 30.02 in 10.0 mi SSE 10.4 mph - N/A   Overcast
9:55 AM 71.4 °F - 61.3 °F 70% 30.04 in 10.0 mi South 9.2 mph - N/A   Overcast
10:15 AM 70.9 °F - 60.6 °F 70% 30.03 in 10.0 mi SSE 8.1 mph - N/A   Mostly Cloudy
10:35 AM 72.3 °F - 60.8 °F 67% 30.03 in 10.0 mi South 4.6 mph - N/A   Mostly Cloudy
10:55 AM 75.0 °F - 60.1 °F 60% 30.03 in 10.0 mi SSW 5.8 mph - N/A   Mostly Cloudy
11:15 AM 74.7 °F - 59.5 °F 59% 30.01 in 10.0 mi South 10.4 mph - N/A   Mostly Cloudy
11:35 AM 76.1 °F - 59.0 °F 55% 30.01 in 10.0 mi SSE 10.4 mph - N/A   Scattered Clouds
11:55 AM 76.6 °F - 58.8 °F 54% 30.00 in 10.0 mi SSE 9.2 mph - N/A   Clear
12:15 PM 77.7 °F - 59.2 °F 53% 29.99 in 10.0 mi South 6.9 mph - N/A   Scattered Clouds
12:35 PM 78.3 °F - 58.8 °F 51% 29.98 in 10.0 mi SSE 9.2 mph - N/A   Clear
12:55 PM 79.7 °F - 58.1 °F 47% 29.97 in 10.0 mi SE 11.5 mph - N/A   Clear
1:15 PM 80.4 °F 80.6 °F 56.8 °F 44% 29.95 in 10.0 mi SSE 11.5 mph 18.4 mph N/A   Clear
1:35 PM 81.5 °F 81.3 °F 56.5 °F 42% 29.93 in 10.0 mi SSE 12.7 mph 19.6 mph N/A   Clear
1:55 PM 80.8 °F 80.7 °F 55.8 °F 42% 29.92 in 10.0 mi SSE 8.1 mph - N/A   Clear
2:15 PM 82.6 °F 81.8 °F 55.6 °F 39% 29.91 in 10.0 mi SSE 8.1 mph - N/A   Clear
2:35 PM 83.1 °F 82.2 °F 55.4 °F 38% 29.91 in 10.0 mi ESE 5.8 mph 16.1 mph N/A   Clear
2:55 PM 83.5 °F 82.5 °F 55.2 °F 38% 29.91 in 10.0 mi South 8.1 mph - N/A   Clear
3:15 PM 82.9 °F 82.0 °F 54.9 °F 38% 29.90 in 10.0 mi South 6.9 mph - N/A   Clear
3:35 PM 83.7 °F 82.5 °F 54.9 °F 37% 29.90 in 10.0 mi South 3.5 mph - N/A   Clear
3:55 PM 84.2 °F 82.9 °F 54.5 °F 36% 29.89 in 10.0 mi South 8.1 mph - N/A   Clear
4:15 PM 84.2 °F 82.9 °F 54.5 °F 36% 29.89 in 10.0 mi South 5.8 mph - N/A   Clear
4:35 PM 84.6 °F 83.2 °F 54.5 °F 36% 29.89 in 10.0 mi SE 3.5 mph - N/A   Clear
4:55 PM 84.7 °F 83.3 °F 54.5 °F 35% 29.89 in 10.0 mi South 8.1 mph - N/A   Clear
5:15 PM 84.2 °F 82.9 °F 54.7 °F 36% 29.89 in 10.0 mi South 3.5 mph - N/A   Clear
5:35 PM 84.0 °F 82.7 °F 54.5 °F 36% 29.89 in 10.0 mi South 4.6 mph - N/A   Clear
5:55 PM 82.8 °F 81.9 °F 54.9 °F 38% 29.90 in 10.0 mi South 3.5 mph - N/A   Clear
6:15 PM 81.3 °F 81.0 °F 55.4 °F 41% 29.90 in 10.0 mi South 3.5 mph - N/A   Clear
6:35 PM 80.1 °F 81.1 °F 60.8 °F 52% 29.91 in 10.0 mi ESE 11.5 mph 18.4 mph N/A   Clear
6:55 PM 78.8 °F - 61.7 °F 56% 29.91 in 10.0 mi SE 13.8 mph 23.0 mph N/A   Clear
7:15 PM 77.5 °F - 62.1 °F 59% 29.92 in 10.0 mi ESE 12.7 mph 20.7 mph N/A   Clear
7:35 PM 76.5 °F - 61.9 °F 61% 29.93 in 10.0 mi ESE 13.8 mph 19.6 mph N/A   Clear
7:55 PM 75.7 °F - 62.2 °F 63% 29.94 in 10.0 mi SE 9.2 mph 20.7 mph N/A   Clear
8:15 PM 75.2 °F - 62.6 °F 65% 29.94 in 10.0 mi ESE 17.3 mph 25.3 mph N/A   Clear
8:35 PM 74.7 °F - 62.6 °F 66% 29.94 in 10.0 mi SE 13.8 mph 23.0 mph N/A   Clear
8:55 PM 73.9 °F - 62.8 °F 68% 29.95 in 10.0 mi SE 12.7 mph 18.4 mph N/A   Clear
9:15 PM 73.4 °F - 63.1 °F 70% 29.96 in 10.0 mi SE 12.7 mph 18.4 mph N/A   Clear
9:35 PM 72.9 °F - 63.1 °F 71% 29.96 in 10.0 mi SE 12.7 mph 20.7 mph N/A   Clear
9:55 PM 72.5 °F - 63.0 °F 72% 29.96 in 10.0 mi SE 15.0 mph 20.7 mph N/A   Scattered Clouds
10:15 PM 72.3 °F - 63.5 °F 74% 29.96 in 10.0 mi SE 16.1 mph 21.9 mph N/A   Scattered Clouds
10:35 PM 72.0 °F - 63.5 °F 75% 29.97 in 10.0 mi SE 12.7 mph 20.7 mph N/A   Mostly Cloudy
10:55 PM 71.8 °F - 63.7 °F 76% 29.97 in 10.0 mi SE 11.5 mph 21.9 mph N/A   Mostly Cloudy
11:15 PM 71.6 °F - 63.7 °F 76% 29.98 in 10.0 mi SE 10.4 mph 20.7 mph N/A   Overcast
11:35 PM 71.6 °F - 63.9 °F 76% 29.97 in 10.0 mi SE 13.8 mph 20.7 mph N/A   Overcast
11:55 PM 71.6 °F - 63.9 °F 76% 29.97 in 10.0 mi SE 13.8 mph 21.9 mph N/A   Overcast